ALPHASAT

Last updated on Sat Aug 15 2026 00:02:59 GMT+0000 (Coordinated Universal Time)

1 39215U 13038A 26226.57290942 .00000120 00000+0 00000+0 0 9992 2 39215 3.0013 0.9770 0002967 165.3127 27.8026 1.00270999 44607
UTC large
Height (km)
Speed (km/s)
/
Latitude / Longitude
Inclination (degrees)
Orbital Period (minutes)
Azimuth
Elevation
Range (km)
Doppler Factor

Next 0 passes for location: London (51.5072 / 0.1276)

No passes found over London.
ALPHASAT